Flag for Australia Weather past 2 weeks in Albury, New South Wales, Australia

Now
54 °F

Passing clouds.


Feels Like: 51 °F
Forecast: 44 / 61 °F
Wind: 8 mph from Northwest

Location: Albury Airport

Current Time: Apr 26, 2015 at 9:51:46 PM

Latest Report: Apr 26, 2015 at 9:00 PM


Visibility: N/A

Pressure: 30.07 "Hg

Humidity: 63%

Dew point: 41 °F

Location of AlburyLocation

Historic Weather in Albury — Graph

°F

Albury temperature yesterday

Maximum temperature yesterday: 61 °F (at 3:00 PM)
Minimum temperature yesterday: 48 °F (at 11:00 PM)
Average temperature yesterday: 54 °F

Past Weeks' High & Low Weather Summary

 TemperatureHumidityPressure
High79 °F (Apr 12, 3:00 PM)100% (Apr 16, 4:00 AM)30.45 "Hg (Apr 16, 4:00 AM)
Low45 °F (Apr 22, 5:00 AM)30% (Apr 12, 3:00 PM)29.68 "Hg (Apr 24, 2:00 PM)
Average60 °F73%30.07 "Hg
* Reported Apr 11 8:00 PM — Apr 26 8:00 PM, Albury, Weather by CustomWeather, © 2015

Note: Actual official high and low records may vary slightly from our data, if they occured in-between our weather recording intervals... More about our weather records

Advertising

Albury weather history for previous 24 hours

 ConditionsComfort  
Time TempWeatherWind HumidityBarometerVisibility
8:00 PM
Sun, Apr 26
55 °FClear.13 mph59%30.04 "HgN/A
7:00 PM57 °FClear.14 mph55%30.04 "HgN/A
6:00 PM57 °FClear.13 mph59%30.01 "HgN/A
5:00 PM63 °FClear.16 mph49%29.98 "HgN/A
4:00 PM64 °FSunny.15 mph49%29.95 "HgN/A
3:00 PM66 °FScattered clouds.15 mph49%29.92 "HgN/A
2:00 PM66 °FScattered clouds.12 mph49%29.92 "HgN/A
1:00 PM66 °FScattered clouds.7 mph56%29.92 "HgN/A
12:00 PM61 °FSunny.5 mph72%29.95 "HgN/A
11:00 AM57 °FSunny.3 mph82%29.95 "HgN/A
10:00 AM52 °FPartly sunny.5 mph100%29.95 "HgN/A
9:00 AM48 °FLow clouds.2 mph100%29.95 "Hg1 mi
8:00 AM48 °FLow clouds.2 mph100%29.92 "Hg0 mi
7:00 AM46 °FLow clouds.No wind100%29.89 "Hg0 mi
6:00 AM46 °FLow clouds.5 mph100%29.89 "Hg0 mi
5:00 AM48 °FLow clouds.1 mph100%29.86 "Hg0 mi
4:00 AM48 °FLow clouds.5 mph100%29.86 "Hg0 mi
3:00 AM46 °FPassing clouds.No wind93%29.83 "Hg1 mi
2:00 AM46 °FPassing clouds.No wind100%29.83 "Hg3 mi
1:00 AM48 °FClear.3 mph100%29.83 "Hg4 mi
12:00 AM48 °FClear.3 mph100%29.83 "HgN/A
11:52 PM
Sat, Apr 25
48 °FClear.No wind100%29.83 "HgN/A
11:00 PM48 °FClear.No wind100%29.83 "Hg1 mi
10:01 PM50 °FClear.No wind94%29.83 "Hg2 mi
9:00 PM52 °FClear.5 mph94%29.83 "HgN/A
Weather by CustomWeather, © 2015

See weather overviewHow to use our weather pages